World > North America > United States > Iowa

Hourly Lanyon, IA Regional Weather

Feedback E-mail the Weather

Quick WX

Lanyon, IA Weather Maps

°F °C°F °C
Lanyon Weather Map
UTC Time: 7/3/2022, 12:00
Your Time:

Lanyon, IA Regional Weather

Expires:202207031200;;605218
ASUS43 KDMX 031106
RWRIA 

WEATHER ROUNDUP FOR IOWA
NATIONAL WEATHER SERVICE DES MOINES IA
600 AM CDT SUN JUL 03 2022

NOTE: "FAIR" INDICATES FEW OR NO CLOUDS BELOW 12,000 FEET WITH NO
SIGNIFICANT WEATHER AND/OR OBSTRUCTIONS TO VISIBILITY.

* - THESE STATIONS ARE NOT NWS STATIONS...THUS NOT UNDER NWS
QUALITY CONTROL.  THEY ALSO DO NOT REPORT WEATHER SUCH 
AS PRECIPITATION OR FOG.  


IAZ004>006-015-016-023>025-035-036-031200-
   NORTH CENTRAL IOWA
  
CITY           SKY/WX    TMP DP  RH WIND       PRES   REMARKS
ALGONA *       CLEAR     63  63 100 MISG      30.07F                  
CLARION *      CLEAR     61  57  88 SE7       30.09F                  
ESTHERVILLE    PTCLDY    60  58  92 S7        30.06F                  
FORT DODGE *   CLEAR     59  57  93 E3        30.09F                  
MASON CITY     CLEAR     56  56 100 S5        30.12R FOG              
FOREST CITY *  FAIR      55  55 100 CALM      30.11R                  
WEBSTER CITY * CLEAR     59  59 100 SE6       30.08S                  
IOWA FALLS *   FAIR      60  58  94 SE5       30.12R                  
$$


SKY/WX - Weather  TMP - Temperature  DP - Dew Point  RH - Humidity
WIND - Wind Direction/Speed PRES - Barometric Pressure VSB - Visibility
WCI - Wind Chill Index E13G22 Wind - East Wind 13 mph/Gusts of 22 mph

Trending Headlines

Lanyon Radar Loop



Lanyon Quick Facts


National Two Day Weather Forecast


E-mail the Lanyon Weather Forecast

Voice your opinion or tell us about page issues...